Lid_Strength_Index
13 15 17 17 16 16 16 17 18 16 14 15 16 15 14 12 12 12 12 11 10 10 8 7 7 4 2 2 2 2 2 1 2 2 3 4 4 3 3 4 4 4 5 6
15 17 16 15 15 16 16 17 17 15 14 15 15 15 13 12 12 12 11 11 11 10 9 8 7 6 3 2 2 2 2 1 2 3 3 4 4 6 5 5 6 6 7 8
17 16 14 15 15 16 16 17 16 17 14 13 15 16 14 13 11 11 10 10 10 10 9 8 8 6 4 2 2 2 2 2 2 3 4 5 7 9 10 9 8 8 8 9
16 15 15 16 16 15 17 14 15 15 16 19 13 21 16 13 12 10 9 9 9 8 7 8 7 7 5 2 1 2 2 2 2 3 5 7 6 8 7 9 9 10 9 10
17 16 16 16 15 14 16 13 14 14 14 16 14 16 16 11 10 8 7 6 5 5 6 7 6 6 5 3 2 2 2 2 2 4 5 6 5 5 8 10 11 11 11 11
15 13 14 14 13 13 12 14 13 12 13 18 13 14 13 11 9 8 7 6 5 5 4 4 5 5 5 4 2 2 2 3 3 4 5 5 6 8 10 11 13 13 14 13
16 15 13 12 14 12 12 13 16 17 17 17 11 14 13 9 7 8 8 7 5 4 4 4 4 4 4 4 2 2 2 3 3 4 5 5 6 9 10 11 12 14 14 14
19 19 15 13 13 15 12 12 16 21 19 17 12 16 12 8 7 6 6 6 6 5 5 5 4 4 3 3 3 2 3 3 3 4 5 5 6 8 9 10 12 13 14 15
18 18 14 13 11 10 12 13 9 15 14 17 13 12 10 8 8 8 7 7 8 6 6 6 6 5 3 3 3 3 3 3 4 5 6 7 9 10 11 12 13 14 14 15
16 19 14 12 10 9 10 9 15 13 19 20 15 15 13 11 10 9 9 9 7 7 8 8 8 6 3 3 3 2 2 3 4 5 6 9 10 12 13 13 13 15 14 15
15 17 15 12 12 12 11 12 12 12 14 18 19 16 9 10 10 10 10 8 9 9 9 9 7 5 4 3 3 3 3 4 5 8 9 10 12 13 13 14 14 14 15 16
13 16 17 14 10 10 11 12 11 15 17 15 16 17 9 8 9 10 10 10 10 10 10 9 8 5 6 6 4 3 4 6 7 9 11 12 13 13 14 15 15 15 16 16
13 16 19 14 12 10 11 11 11 12 14 17 18 17 9 9 10 9 11 11 11 11 10 10 9 8 7 7 7 7 7 8 9 10 11 13 13 14 15 15 15 16 16 16
12 15 16 17 14 13 15 13 12 14 18 16 15 15 12 11 11 10 12 11 12 12 11 11 11 10 8 8 8 10 9 10 10 11 12 13 14 14 15 15 16 16 15 16
13 17 16 15 13 13 14 14 14 15 15 17 15 14 13 11 11 12 12 12 13 13 12 12 13 12 11 10 10 10 10 11 11 12 13 15 15 16 16 16 16 15 15 16
13 17 18 18 15 15 16 14 14 14 13 14 14 14 9 10 11 11 12 13 14 14 14 13 13 13 13 11 11 11 11 11 11 13 15 15 15 16 15 15 15 16 16 16
15 16 18 20 18 19 20 17 14 13 12 12 14 11 10 13 13 12 13 13 14 14 14 14 14 14 14 13 12 11 11 11 13 15 15 15 15 15 15 16 16 16 16 16
16 16 16 20 20 21 13 13 13 14 13 11 11 11 11 13 12 11 12 13 14 14 14 14 14 15 14 13 12 11 12 14 15 15 15 15 15 16 16 16 16 16 16 16
14 15 18 21 22 18 16 13 12 13 13 9 11 11 12 13 12 10 12 12 13 14 14 14 14 15 15 14 13 13 14 15 15 15 16 15 16 16 16 16 16 17 17 17
16 15 17 23 22 22 15 11 10 11 16 9 10 11 13 14 17 15 13 12 13 13 14 14 15 15 15 16 16 15 16 16 16 16 16 16 16 16 16 17 18 17 17 17
20 19 19 19 21 18 14 12 11 16 15 10 11 11 13 15 15 13 13 13 12 13 13 14 15 16 16 16 15 16 15 16 16 16 16 16 16 16 17 17 17 17 17 17
21 21 21 20 21 22 13 12 13 11 9 10 11 12 13 14 14 13 13 14 13 14 14 14 14 15 15 14 14 15 16 16 16 16 17 17 17 17 16 16 17 16 16 15
22 17 18 17 17 12 12 11 9 9 11 12 13 13 13 15 14 13 14 14 14 15 15 14 14 15 14 14 14 15 16 16 17 17 17 17 17 16 16 16 16 15 14 14
20 18 17 17 13 13 12 11 11 11 12 13 13 13 14 15 14 14 13 14 14 15 15 16 15 15 16 16 15 14 16 17 15 16 17 16 16 16 15 14 14 13 14 14
17 18 18 17 15 13 13 12 11 11 12 13 13 13 13 13 14 13 13 13 13 14 15 16 16 16 17 17 17 16 16 15 14 15 16 15 15 14 15 14 14 14 13 13
18 18 18 17 13 13 13 12 12 12 13 14 14 14 14 13 13 13 13 14 14 14 15 15 16 16 15 15 15 14 13 13 15 16 16 15 14 15 15 15 15 14 14 14